EW7214 Weather Reports


Display with metric or nautical units.
time (UTC)temp
F
wind
direction
speed
MPH
gust
MPH
rain 1hr
in
rain 24hr
in
rain mn
in
humidity
%
barometer
mb
20220122082123 28 180 0.0 0.0 0.00 0.00 0.00 72 1025.7
20220122081122 28 180 0.0 0.0 0.00 0.00 0.00 71 1025.6
20220122080122 29 180 0.0 0.0 0.00 0.00 0.00 70 1025.6
20220122075122 29 180 0.0 0.0 0.00 0.00 0.00 71 1025.5
20220122074123 29 180 0.0 0.0 0.00 0.00 0.00 69 1025.4
20220122073122 29 180 0.0 0.0 0.00 0.00 0.00 69 1025.4
20220122072122 29 180 0.0 0.0 0.00 0.00 0.00 69 1025.2
20220122071123 29 180 0.0 0.0 0.00 0.00 0.00 68 1025.0
20220122070122 30 180 0.0 0.0 0.00 0.00 0.00 67 1025.0
20220122065122 30 180 0.0 0.0 0.00 0.00 0.00 67 1024.9
20220122064123 30 180 0.0 0.0 0.00 0.00 0.00 66 1025.1
20220122063122 30 180 0.0 0.0 0.00 0.00 0.00 66 1025.2
20220122062122 30 180 0.0 0.0 0.00 0.00 0.00 65 1025.1
20220122061123 30 180 0.0 0.0 0.00 0.00 0.00 66 1025.3
20220122060122 30 180 0.0 0.0 0.00 0.00 0.00 67 1025.3
20220122055123 30 180 0.0 0.0 0.00 0.00 0.00 65 1025.2
20220122054122 31 180 0.0 0.0 0.00 0.00 0.00 64 1025.4
20220122052124 31 180 0.0 0.0 0.00 0.00 0.00 63 1024.8
20220122051124 31 180 0.0 0.0 0.00 0.00 0.00 63 1025.0
20220122050123 32 180 0.0 0.0 0.00 0.00 0.00 62 1025.0
20220122045122 32 180 0.0 0.0 0.00 0.00 0.00 63 1025.0
20220122044122 32 180 0.0 0.0 0.00 0.00 0.00 61 1025.1
20220122043122 32 180 0.0 0.0 0.00 0.00 0.00 61 1025.1
20220122042124 33 180 0.0 0.0 0.00 0.00 0.00 60 1025.0
20220122041124 33 180 0.0 0.0 0.00 0.00 0.00 60 1024.9
20220122040124 33 180 0.0 0.0 0.00 0.00 0.00 59 1024.9
20220122035124 33 180 0.0 0.0 0.00 0.00 0.00 59 1024.8
20220122034124 33 158 0.0 0.0 0.00 0.00 0.00 57 1024.9
20220122033124 34 158 0.0 0.0 0.00 0.00 0.00 57 1024.8
20220122032125 34 158 0.0 0.0 0.00 0.00 0.00 55 1024.7
20220122031124 35 180 0.0 0.0 0.00 0.00 0.00 55 1024.8
20220122030124 35 180 0.0 0.0 0.00 0.00 0.00 55 1024.8
20220122025124 35 158 0.0 0.0 0.00 0.00 0.00 54 1024.8
20220122024124 36 180 0.0 0.0 0.00 0.00 0.00 53 1024.7
20220122023124 36 180 0.0 0.0 0.00 0.00 0.00 52 1024.7
20220122022124 36 180 0.0 0.0 0.00 0.00 0.00 52 1024.6
20220122021124 37 180 0.0 0.0 0.00 0.00 0.00 53 1024.7
20220122020124 37 180 0.0 0.0 0.00 0.00 0.00 52 1024.7
20220122015124 37 180 0.0 0.0 0.00 0.00 0.00 51 1024.7
20220122014124 38 180 0.0 0.0 0.00 0.00 0.00 49 1024.5
20220122013124 39 180 0.0 0.0 0.00 0.00 0.00 47 1024.6
20220122012124 39 180 0.0 0.0 0.00 0.00 0.00 46 1024.4
20220122011125 40 180 0.0 0.0 0.00 0.00 0.00 45 1024.2
20220122010124 41 158 0.0 0.0 0.00 0.00 0.00 43 1024.2
20220122005124 42 180 0.0 0.0 0.00 0.00 0.00 42 1023.9
20220122004124 42 180 0.0 0.0 0.00 0.00 0.00 41 1023.8
20220122003124 43 180 0.0 0.0 0.00 0.00 0.00 39 1023.8
20220122002124 44 195 0.0 1.0 0.00 0.00 0.00 39 1023.6
20220122001124 44 180 0.0 0.0 0.00 0.00 0.00 38 1023.3
20220122000124 45 180 0.0 1.0 0.00 0.00 0.00 37 1023.3
20220121235124 46 158 0.0 1.0 0.00 0.00 0.00 37 1023.2
20220121234124 47 182 0.0 2.0 0.00 0.00 0.00 36 1023.2
20220121233125 47 113 0.0 1.0 0.00 0.00 0.00 35 1023.1
20220121232125 48 118 0.0 2.0 0.00 0.00 0.00 34 1023.1
20220121231124 49 213 1.0 3.0 0.00 0.00 0.00 34 1023.2
20220121230124 49 63 1.0 3.0 0.00 0.00 0.00 33 1023.2
20220121225123 50 119 1.0 2.0 0.00 0.00 0.00 32 1023.0
20220121224124 50 251 1.0 3.0 0.00 0.00 0.00 32 1022.8
20220121223125 51 272 1.0 2.0 0.00 0.00 0.00 32 1022.9
20220121222123 52 90 0.0 0.0 0.00 0.00 0.00 31 1022.9
20220121221124 50 14 1.0 4.0 0.00 0.00 0.00 32 1023.1
20220121220124 49 341 2.0 3.0 0.00 0.00 0.00 32 1023.1
20220121215123 51 245 1.0 4.0 0.00 0.00 0.00 31 1023.1
20220121214123 51 251 0.0 3.0 0.00 0.00 0.00 31 1023.2
20220121213123 50 23 2.0 4.0 0.00 0.00 0.00 31 1023.2
20220121212123 51 33 1.0 3.0 0.00 0.00 0.00 31 1023.2
20220121211123 50 264 2.0 4.0 0.00 0.00 0.00 30 1023.2
20220121210124 50 310 1.0 3.0 0.00 0.00 0.00 30 1023.2
20220121205124 51 317 1.0 3.0 0.00 0.00 0.00 30 1023.3
20220121204123 50 221 1.0 3.0 0.00 0.00 0.00 31 1023.4
20220121203123 50 279 2.0 4.0 0.00 0.00 0.00 31 1023.5
20220121202123 49 10 2.0 4.0 0.00 0.00 0.00 31 1023.9
20220121201123 50 259 2.0 3.0 0.00 0.00 0.00 31 1024.1
20220121200125 50 288 2.0 4.0 0.00 0.00 0.00 30 1024.1
20220121195124 48 320 3.0 4.0 0.00 0.00 0.00 32 1024.4
20220121194124 47 344 3.0 5.0 0.00 0.00 0.00 32 1024.6
20220121193124 48 342 2.0 4.0 0.00 0.00 0.00 32 1024.9
20220121192123 46 271 2.0 4.0 0.00 0.00 0.00 33 1025.0
20220121191123 46 308 2.0 4.0 0.00 0.00 0.00 34 1025.3
20220121190123 46 73 2.0 4.0 0.00 0.00 0.00 35 1025.3
20220121185124 45 258 1.0 4.0 0.00 0.00 0.00 36 1025.7
20220121184124 45 308 1.0 4.0 0.00 0.00 0.00 37 1026.0
20220121183124 44 126 1.0 3.0 0.00 0.00 0.00 37 1026.3
20220121182123 43 173 2.0 4.0 0.00 0.00 0.00 37 1026.5
20220121181124 42 197 2.0 3.0 0.00 0.00 0.00 38 1026.8
20220121180124 42 285 2.0 4.0 0.00 0.00 0.00 39 1026.8
20220121175123 40 229 2.0 3.0 0.00 0.00 0.00 40 1027.0
20220121174123 41 312 2.0 4.0 0.00 0.00 0.00 39 1027.1
20220121173125 39 278 1.0 3.0 0.00 0.00 0.00 41 1027.3
20220121172124 39 259 2.0 3.0 0.00 0.00 0.00 41 1027.4
20220121171124 38 277 2.0 3.0 0.00 0.00 0.00 42 1027.3
20220121170124 37 336 2.0 6.0 0.00 0.00 0.00 42 1027.3
20220121165123 37 332 2.0 3.0 0.00 0.00 0.00 43 1027.5
20220121164124 36 6 2.0 4.0 0.00 0.00 0.00 43 1027.7
20220121163123 35 281 2.0 4.0 0.00 0.00 0.00 43 1027.9
20220121162123 36 328 2.0 4.0 0.00 0.00 0.00 42 1027.8
20220121161124 35 47 2.0 4.0 0.00 0.00 0.00 43 1027.8
20220121160124 35 264 2.0 4.0 0.00 0.00 0.00 43 1027.8
20220121155124 34 258 2.0 3.0 0.00 0.00 0.00 43 1027.7
20220121154123 33 39 2.0 4.0 0.00 0.00 0.00 44 1027.7
20220121153125 32 295 2.0 5.0 0.00 0.00 0.00 45 1027.5
20220121152123 31 31 2.0 3.0 0.00 0.00 0.00 45 1027.4
20220121151123 31 60 2.0 3.0 0.00 0.00 0.00 46 1027.2
20220121150124 30 259 2.0 6.0 0.00 0.00 0.00 47 1027.2
20220121145123 29 309 2.0 4.0 0.00 0.00 0.00 47 1027.3
20220121144123 29 358 1.0 3.0 0.00 0.00 0.00 49 1027.0
20220121143125 28 298 1.0 3.0 0.00 0.00 0.00 49 1026.9
20220121142123 28 278 1.0 3.0 0.00 0.00 0.00 50 1027.0
20220121141123 27 15 1.0 2.0 0.00 0.00 0.00 51 1026.9
20220121140123 27 323 0.0 3.0 0.00 0.00 0.00 51 1026.9
20220121135123 27 128 0.0 2.0 0.00 0.00 0.00 52 1026.8
20220121134124 27 0 1.0 3.0 0.00 0.00 0.00 51 1026.8
20220121133123 27 299 0.0 3.0 0.00 0.00 0.00 51 1026.7
20220121132124 27 32 1.0 2.0 0.00 0.00 0.00 50 1026.5
20220121131126 27 309 1.0 3.0 0.00 0.00 0.00 50 1026.5
20220121130123 27 340 1.0 3.0 0.00 0.00 0.00 50 1026.5
20220121125123 27 280 2.0 3.0 0.00 0.00 0.00 50 1026.5
20220121124123 27 303 2.0 4.0 0.00 0.00 0.00 49 1026.3
20220121123123 27 357 2.0 5.0 0.00 0.00 0.00 48 1026.2
20220121122122 27 308 2.0 5.0 0.00 0.00 0.00 48 1026.0
20220121121124 28 302 2.0 3.0 0.00 0.00 0.00 48 1026.0
20220121120123 28 47 2.0 4.0 0.00 0.00 0.00 48 1026.0
20220121115124 28 315 2.0 4.0 0.00 0.00 0.00 47 1025.9
20220121114123 28 316 3.0 4.0 0.00 0.00 0.00 46 1025.8
20220121113123 28 306 2.0 4.0 0.00 0.00 0.00 46 1025.9
20220121112123 28 294 3.0 6.0 0.00 0.00 0.00 45 1026.0
20220121111123 28 298 3.0 4.0 0.00 0.00 0.00 45 1026.3
20220121110123 28 11 3.0 5.0 0.00 0.00 0.00 44 1026.3
20220121105124 29 21 3.0 5.0 0.00 0.00 0.00 44 1026.2
20220121104124 29 331 3.0 5.0 0.00 0.00 0.00 44 1026.2
20220121103123 29 330 3.0 5.0 0.00 0.00 0.00 44 1026.5
20220121102122 30 358 3.0 6.0 0.00 0.00 0.00 44 1026.4
20220121101122 30 355 3.0 4.0 0.00 0.00 0.00 44 1026.6
20220121100123 30 324 3.0 5.0 0.00 0.00 0.00 44 1026.6
20220121095122 31 318 3.0 4.0 0.00 0.00 0.00 44 1026.6
20220121094122 31 338 3.0 5.0 0.00 0.00 0.00 44 1026.5
20220121093123 31 202 3.0 6.0 0.00 0.00 0.00 44 1026.5
20220121092123 31 328 3.0 6.0 0.00 0.00 0.00 45 1026.3
20220121091123 31 315 2.0 4.0 0.00 0.00 0.00 45 1026.4
20220121090122 31 331 2.0 4.0 0.00 0.00 0.00 44 1026.4
20220121085124 31 19 3.0 5.0 0.00 0.00 0.00 44 1026.2
20220121084122 31 359 2.0 4.0 0.00 0.00 0.00 44 1026.3
20220121083123 31 330 3.0 5.0 0.00 0.00 0.00 43 1026.2